Tracking 22124 objects as of 23-Jan-2021
HD Live streaming from Space Station
objects crossing your sky now

SPACEBEE-13

Track SPACEBEE-13 now!
10-day predictions


NORAD ID: 46310
Int'l Code: 2020-061AQ
Perigee: 537.6 km
Apogee: 540.5 km
Inclination: 97.5 °
Period: 95.3 minutes
Semi major axis: 6910 km
RCS: Unknown
Launch date: September 3, 2020
Source: United States (US)
Launch site: FRENCH GUIANA (FRGUI)
aabbcc
Your satellite tracking list
Your tracking list is empty




NASA's NSSDC Master Catalog

Two Line Element Set (TLE):
1 46310U 20061AQ  21022.86517683  .00001842  00000-0  11289-3 0  9993
2 46310  97.5059  99.4504 0002105 121.8854 238.2582 15.11400658 21340
Source of the keplerian elements: AFSPC